Flag for Switzerland Weather past 2 weeks in Schaffhausen, Schaffhausen, Switzerland

Now
46 °F

Cool.


Feels Like: 42 °F
Forecast: 31 / 54 °F
Wind: 9 mph from East

Location: Zurich-Kloten

Current Time: Oct 24, 2014 at 1:26:11 PM

Latest Report: Oct 24, 2014 at 12:00 PM


Visibility: N/A

Pressure: 30.22 "Hg

Humidity: 78%

Dew point: 40 °F

Location of SchaffhausenLocation

Historic Weather in Schaffhausen — Graph

°F

Schaffhausen temperature yesterday

Maximum temperature yesterday: 50 °F (at 3:00 PM)
Minimum temperature yesterday: 43 °F (at 2:00 AM)
Average temperature yesterday: 45 °F

Past Weeks' High & Low Weather Summary

 TemperatureHumidityPressure
High75 °F (Oct 9, 4:00 PM)100% (Oct 12, 4:00 AM)30.34 "Hg (Oct 12, 4:00 AM)
Low39 °F (Oct 24, 4:00 AM)41% (Oct 9, 3:00 PM)29.73 "Hg (Oct 21, 7:00 PM)
Average56 °F85%30.01 "Hg
* Reported Oct 9 12:00 Noon — Oct 24 12:00 Noon, Schaffhausen, Weather by CustomWeather, © 2014

Note: Actual official high and low records may vary slightly from our data, if they occured in-between our weather recording intervals... More about our weather records

Advertising

Schaffhausen weather history for previous 24 hours

 ConditionsComfort  
Time TempWeatherWind HumidityBarometerVisibility
12:00 PM
Oct 24
46 °FCool.9 mph78%30.22 "HgN/A
11:00 AM45 °FFog.3 mph86%30.24 "Hg6 mi
10:00 AM44 °FQuite cool.5 mph90%30.24 "HgN/A
9:00 AM43 °FQuite cool.7 mph92%30.24 "HgN/A
8:00 AM42 °FFog.1 mph95%30.23 "Hg2 mi
7:00 AM41 °FQuite cool.2 mph95%30.23 "HgN/A
6:00 AM39 °FChilly.6 mph97%30.25 "HgN/A
5:00 AM40 °FFog.5 mph97%30.25 "Hg4 mi
4:00 AM39 °FChilly.2 mph97%30.26 "HgN/A
3:00 AM39 °FChilly.5 mph95%30.27 "HgN/A
2:00 AM42 °FFog.5 mph89%30.27 "Hg6 mi
1:00 AM42 °FQuite cool.6 mph92%30.28 "HgN/A
12:00 AM45 °FQuite cool.2 mph79%30.28 "HgN/A
11:00 PM
Oct 23
46 °FFog.3 mph81%30.28 "Hg7 mi
10:00 PM46 °FCool.3 mph81%30.28 "HgN/A
9:00 PM47 °FCool.3 mph76%30.26 "HgN/A
8:00 PM47 °FOvercast.2 mph78%30.28 "Hg12 mi
7:00 PM48 °FCool.1 mph68%30.27 "HgN/A
6:00 PM48 °FCool.3 mph75%30.28 "HgN/A
5:00 PM49 °FOvercast.2 mph66%30.27 "Hg19 mi
4:00 PM49 °FCool.1 mph65%30.27 "HgN/A
3:00 PM50 °FCool.3 mph65%30.29 "HgN/A
2:00 PM49 °FPartly sunny.7 mph72%30.31 "Hg12 mi
1:00 PM47 °FCool.7 mph79%30.34 "HgN/A
Weather by CustomWeather, © 2014

See weather overviewHow to use our weather pages